Time,TemperatureF,DewpointF,PressureIn,WindDirection,WindDirectionDegrees,WindSpeedMPH,WindSpeedGustMPH,Humidity,HourlyPrecipIn,Conditions,Clouds,dailyrainin,SoftwareType,DateUTC
2013-10-06 00:09:00,47.8,47.0,29.91,South,169,0.0,2.0,97,0.00,,,0.00,Wunderground v.1.15,2013-10-06 05:09:00,
2013-10-06 00:14:00,47.6,46.8,29.90,South,169,0.0,2.0,97,0.00,,,0.00,Wunderground v.1.15,2013-10-06 05:14:00,
2013-10-06 00:19:00,47.5,46.7,29.90,SW,222,0.0,2.0,97,0.00,,,0.01,Wunderground v.1.15,2013-10-06 05:19:00,
2013-10-06 00:29:00,47.2,46.4,29.90,SW,222,0.0,2.0,97,0.00,,,0.01,Wunderground v.1.15,2013-10-06 05:29:00,
2013-10-06 00:39:00,47.0,46.2,29.89,SSW,211,0.0,2.0,97,0.00,,,0.01,Wunderground v.1.15,2013-10-06 05:39:00,
2013-10-06 00:49:00,47.0,46.2,29.89,SE,143,0.0,2.0,97,0.00,,,0.01,Wunderground v.1.15,2013-10-06 05:49:00,
2013-10-06 00:54:00,47.2,46.4,29.89,ESE,106,0.0,2.0,97,0.00,,,0.01,Wunderground v.1.15,2013-10-06 05:54:00,
2013-10-06 01:04:00,47.4,46.3,29.89,SSE,164,0.0,2.0,96,0.00,,,0.01,Wunderground v.1.15,2013-10-06 06:04:00,
2013-10-06 01:14:00,47.3,46.2,29.89,WSW,238,0.0,2.0,96,0.00,,,0.01,Wunderground v.1.15,2013-10-06 06:14:00,
2013-10-06 01:24:00,47.2,45.8,29.90,ESE,121,0.0,2.0,95,0.00,,,0.01,Wunderground v.1.15,2013-10-06 06:24:00,
2013-10-06 01:29:00,47.3,45.9,29.90,ESE,110,0.0,2.0,95,0.00,,,0.01,Wunderground v.1.15,2013-10-06 06:29:00,
2013-10-06 01:39:00,47.7,45.8,29.90,SE,129,0.0,2.0,93,0.00,,,0.01,Wunderground v.1.15,2013-10-06 06:39:00,
2013-10-06 01:49:00,47.9,46.0,29.89,SSE,149,0.0,2.0,93,0.00,,,0.01,Wunderground v.1.15,2013-10-06 06:49:00,
2013-10-06 01:59:00,47.4,45.5,29.89,ESE,108,0.0,2.0,93,0.00,,,0.01,Wunderground v.1.15,2013-10-06 06:59:00,
2013-10-06 02:09:00,47.2,45.6,29.89,East,94,0.0,2.0,94,0.00,,,0.01,Wunderground v.1.15,2013-10-06 07:09:00,
2013-10-06 02:19:00,46.8,45.2,29.89,East,101,0.0,2.0,94,0.00,,,0.01,Wunderground v.1.15,2013-10-06 07:19:00,
2013-10-06 02:29:00,46.4,44.8,29.89,SE,135,0.0,2.0,94,0.00,,,0.01,Wunderground v.1.15,2013-10-06 07:29:00,
2013-10-06 02:39:00,46.5,44.9,29.88,SSE,148,0.0,2.0,94,0.00,,,0.01,Wunderground v.1.15,2013-10-06 07:39:00,
2013-10-06 02:49:00,46.6,45.0,29.88,ESE,121,0.0,2.0,94,0.00,,,0.01,Wunderground v.1.15,2013-10-06 07:49:00,
2013-10-06 02:59:00,46.3,44.7,29.88,SE,125,0.0,2.0,94,0.00,,,0.01,Wunderground v.1.15,2013-10-06 07:59:00,
2013-10-06 03:09:00,45.8,44.4,29.87,SSW,210,0.0,2.0,95,0.00,,,0.01,Wunderground v.1.15,2013-10-06 08:09:00,
2013-10-06 03:19:00,45.6,44.5,29.87,SW,228,0.0,2.0,96,0.00,,,0.01,Wunderground v.1.15,2013-10-06 08:19:00,
2013-10-06 03:29:00,45.6,44.3,29.86,WSW,241,0.0,2.0,95,0.00,,,0.01,Wunderground v.1.15,2013-10-06 08:29:00,
2013-10-06 03:39:00,45.5,44.2,29.86,ESE,114,0.0,2.0,95,0.00,,,0.01,Wunderground v.1.15,2013-10-06 08:39:00,
2013-10-06 03:49:00,45.2,44.1,29.86,West,260,0.0,2.0,96,0.00,,,0.01,Wunderground v.1.15,2013-10-06 08:49:00,
2013-10-06 03:54:00,45.3,44.0,29.86,South,186,0.0,2.0,95,0.00,,,0.01,Wunderground v.1.15,2013-10-06 08:54:00,
2013-10-06 04:04:00,45.3,44.0,29.86,East,86,0.0,2.0,95,0.00,,,0.01,Wunderground v.1.15,2013-10-06 09:04:00,
2013-10-06 04:14:00,45.3,44.0,29.87,NW,304,0.0,2.0,95,0.00,,,0.01,Wunderground v.1.15,2013-10-06 09:14:00,
2013-10-06 04:24:00,45.2,43.9,29.87,SSE,149,0.0,2.0,95,0.00,,,0.01,Wunderground v.1.15,2013-10-06 09:24:00,
2013-10-06 04:29:00,45.2,43.6,29.87,SSE,166,0.0,2.0,94,0.00,,,0.01,Wunderground v.1.15,2013-10-06 09:29:00,
2013-10-06 04:39:00,45.4,43.5,29.87,SE,134,0.0,2.0,93,0.00,,,0.01,Wunderground v.1.15,2013-10-06 09:39:00,
2013-10-06 04:44:00,45.4,43.5,29.87,East,101,0.0,2.0,93,0.00,,,0.01,Wunderground v.1.15,2013-10-06 09:44:00,
2013-10-06 04:54:00,45.5,43.3,29.87,SE,129,0.0,2.0,92,0.00,,,0.01,Wunderground v.1.15,2013-10-06 09:54:00,
2013-10-06 05:04:00,45.2,43.0,29.87,East,83,0.0,2.0,92,0.00,,,0.01,Wunderground v.1.15,2013-10-06 10:04:00,
2013-10-06 05:14:00,45.0,43.1,29.88,ESE,111,0.0,2.0,93,0.00,,,0.01,Wunderground v.1.15,2013-10-06 10:14:00,
2013-10-06 05:24:00,44.9,43.0,29.88,East,101,0.0,2.0,93,0.00,,,0.01,Wunderground v.1.15,2013-10-06 10:24:00,
2013-10-06 05:34:00,44.5,42.9,29.88,ESE,117,0.0,2.0,94,0.00,,,0.01,Wunderground v.1.15,2013-10-06 10:34:00,
2013-10-06 05:44:00,44.1,42.5,29.88,ESE,117,0.0,2.0,94,0.00,,,0.01,Wunderground v.1.15,2013-10-06 10:44:00,
2013-10-06 05:54:00,43.6,42.3,29.88,SSW,197,0.0,2.0,95,0.00,,,0.01,Wunderground v.1.15,2013-10-06 10:54:00,
2013-10-06 05:59:00,43.5,42.2,29.88,SSE,167,0.0,2.0,95,0.00,,,0.01,Wunderground v.1.15,2013-10-06 10:59:00,
2013-10-06 06:09:00,43.3,42.0,29.89,SSE,158,0.0,2.0,95,0.00,,,0.01,Wunderground v.1.15,2013-10-06 11:09:00,
2013-10-06 06:19:00,43.2,42.1,29.88,ESE,108,0.0,2.0,96,0.00,,,0.01,Wunderground v.1.15,2013-10-06 11:19:00,
2013-10-06 06:24:00,43.2,42.1,29.89,ESE,113,0.0,2.0,96,0.00,,,0.01,Wunderground v.1.15,2013-10-06 11:24:00,
2013-10-06 06:34:00,42.9,41.8,29.89,SE,131,0.0,2.0,96,0.00,,,0.01,Wunderground v.1.15,2013-10-06 11:34:00,
2013-10-06 06:44:00,42.8,41.7,29.90,East,101,0.0,2.0,96,0.00,,,0.01,Wunderground v.1.15,2013-10-06 11:44:00,
2013-10-06 06:54:00,42.9,41.8,29.90,ESE,108,0.0,2.0,96,0.00,,,0.01,Wunderground v.1.15,2013-10-06 11:54:00,
2013-10-06 07:04:00,42.6,41.8,29.89,SE,134,0.0,2.0,97,0.00,,,0.01,Wunderground v.1.15,2013-10-06 12:04:00,
2013-10-06 07:14:00,42.4,41.3,29.89,SSW,201,0.0,2.0,96,0.00,,,0.01,Wunderground v.1.15,2013-10-06 12:14:00,
2013-10-06 07:24:00,42.7,41.6,29.89,SE,125,0.0,2.0,96,0.00,,,0.01,Wunderground v.1.15,2013-10-06 12:24:00,
2013-10-06 07:34:00,43.0,41.7,29.89,SSE,150,0.0,2.0,95,0.00,,,0.01,Wunderground v.1.15,2013-10-06 12:34:00,
2013-10-06 07:44:00,43.6,42.0,29.90,SSW,193,0.0,2.0,94,0.00,,,0.01,Wunderground v.1.15,2013-10-06 12:44:00,
2013-10-06 07:54:00,44.7,41.7,29.90,SE,143,1.0,2.0,89,0.00,,,0.01,Wunderground v.1.15,2013-10-06 12:54:00,
2013-10-06 08:04:00,45.8,42.2,29.90,SSE,156,0.0,2.0,87,0.00,,,0.01,Wunderground v.1.15,2013-10-06 13:04:00,
2013-10-06 08:09:00,46.3,42.0,29.90,ESE,118,0.0,4.0,85,0.00,,,0.01,Wunderground v.1.15,2013-10-06 13:09:00,
2013-10-06 08:19:00,47.3,43.0,29.90,WNW,287,0.0,2.0,85,0.00,,,0.01,Wunderground v.1.15,2013-10-06 13:19:00,
2013-10-06 08:24:00,47.8,42.9,29.90,ESE,120,0.0,2.0,83,0.00,,,0.01,Wunderground v.1.15,2013-10-06 13:24:00,
2013-10-06 08:34:00,48.1,43.2,29.90,East,98,0.0,4.0,83,0.00,,,0.01,Wunderground v.1.15,2013-10-06 13:34:00,
2013-10-06 08:44:00,48.6,42.7,29.91,SSE,155,1.0,7.0,80,0.00,,,0.01,Wunderground v.1.15,2013-10-06 13:44:00,
2013-10-06 08:54:00,49.5,42.9,29.91,WSW,246,0.0,3.0,78,0.00,,,0.01,Wunderground v.1.15,2013-10-06 13:54:00,
2013-10-06 09:04:00,50.1,43.2,29.91,NNW,338,1.0,2.0,77,0.00,,,0.01,Wunderground v.1.15,2013-10-06 14:04:00,
2013-10-06 09:09:00,50.5,43.2,29.91,ENE,72,0.0,2.0,76,0.00,,,0.01,Wunderground v.1.15,2013-10-06 14:09:00,
2013-10-06 09:19:00,50.6,43.0,29.91,SSE,154,1.0,3.0,75,0.00,,,0.01,Wunderground v.1.15,2013-10-06 14:19:00,
2013-10-06 09:29:00,50.6,42.3,29.92,WSW,248,2.0,2.0,73,0.00,,,0.01,Wunderground v.1.15,2013-10-06 14:29:00,
2013-10-06 09:39:00,51.4,42.7,29.91,SSE,165,1.0,1.0,72,0.00,,,0.01,Wunderground v.1.15,2013-10-06 14:39:00,
2013-10-06 09:49:00,51.8,43.1,29.92,SW,224,1.0,1.0,72,0.00,,,0.01,Wunderground v.1.15,2013-10-06 14:49:00,
2013-10-06 09:59:00,51.6,42.1,29.92,SW,223,2.0,4.0,70,0.00,,,0.01,Wunderground v.1.15,2013-10-06 14:59:00,
2013-10-06 10:09:00,52.5,42.2,29.92,SSW,194,2.0,2.0,68,0.00,,,0.01,Wunderground v.1.15,2013-10-06 15:09:00,
2013-10-06 10:19:00,52.3,42.0,29.93,West,263,3.0,3.0,68,0.00,,,0.01,Wunderground v.1.15,2013-10-06 15:19:00,
2013-10-06 10:29:00,53.2,42.5,29.93,South,188,2.0,2.0,67,0.00,,,0.01,Wunderground v.1.15,2013-10-06 15:29:00,
2013-10-06 10:39:00,53.3,42.2,29.93,ESE,102,1.0,6.0,66,0.00,,,0.01,Wunderground v.1.15,2013-10-06 15:39:00,
2013-10-06 10:49:00,52.3,41.3,29.94,SE,124,2.0,12.0,66,0.00,,,0.01,Wunderground v.1.15,2013-10-06 15:49:00,
2013-10-06 10:59:00,51.1,40.9,29.94,ESE,112,3.0,8.0,68,0.00,,,0.01,Wunderground v.1.15,2013-10-06 15:59:00,
2013-10-06 11:04:00,51.3,42.2,29.94,WSW,256,2.0,8.0,71,0.00,,,0.01,Wunderground v.1.15,2013-10-06 16:04:00,
2013-10-06 11:14:00,52.9,42.6,29.93,South,181,2.0,2.0,68,0.00,,,0.01,Wunderground v.1.15,2013-10-06 16:14:00,
2013-10-06 11:24:00,52.6,42.7,29.93,SSE,148,2.0,2.0,69,0.00,,,0.01,Wunderground v.1.15,2013-10-06 16:24:00,
2013-10-06 11:34:00,53.1,42.0,29.93,ESE,111,2.0,6.0,66,0.00,,,0.01,Wunderground v.1.15,2013-10-06 16:34:00,
2013-10-06 11:39:00,52.7,41.7,29.93,ESE,120,2.0,3.0,66,0.00,,,0.01,Wunderground v.1.15,2013-10-06 16:39:00,
2013-10-06 11:44:00,53.1,42.4,29.93,East,89,2.0,5.0,67,0.00,,,0.01,Wunderground v.1.15,2013-10-06 16:44:00,
2013-10-06 11:54:00,53.7,42.2,29.92,ESE,111,2.0,2.0,65,0.00,,,0.01,Wunderground v.1.15,2013-10-06 16:54:00,
2013-10-06 11:59:00,53.3,42.2,29.92,ESE,118,2.0,2.0,66,0.00,,,0.01,Wunderground v.1.15,2013-10-06 16:59:00,
2013-10-06 12:09:00,54.8,42.4,29.92,SW,217,2.0,3.0,63,0.00,,,0.01,Wunderground v.1.15,2013-10-06 17:09:00,
2013-10-06 12:19:00,55.4,42.6,29.92,NE,44,2.0,3.0,62,0.00,,,0.01,Wunderground v.1.15,2013-10-06 17:19:00,
2013-10-06 12:29:00,55.8,43.4,29.92,ESE,122,1.0,4.0,63,0.00,,,0.01,Wunderground v.1.15,2013-10-06 17:29:00,
2013-10-06 12:39:00,55.9,43.5,29.92,SSE,160,3.0,5.0,63,0.00,,,0.01,Wunderground v.1.15,2013-10-06 17:39:00,
2013-10-06 12:49:00,54.9,42.1,29.92,SSE,152,3.0,3.0,62,0.00,,,0.01,Wunderground v.1.15,2013-10-06 17:49:00,
2013-10-06 12:59:00,54.9,42.9,29.92,West,280,2.0,2.0,64,0.00,,,0.01,Wunderground v.1.15,2013-10-06 17:59:00,
2013-10-06 13:09:00,55.0,44.2,29.92,SSW,205,1.0,2.0,67,0.00,,,0.01,Wunderground v.1.15,2013-10-06 18:09:00,
2013-10-06 13:19:00,55.0,43.0,29.92,SE,135,3.0,3.0,64,0.00,,,0.01,Wunderground v.1.15,2013-10-06 18:19:00,
2013-10-06 13:24:00,54.6,43.1,29.92,ESE,105,3.0,5.0,65,0.00,,,0.01,Wunderground v.1.15,2013-10-06 18:24:00,
2013-10-06 13:34:00,54.3,42.8,29.92,WSW,257,2.0,4.0,65,0.00,,,0.01,Wunderground v.1.15,2013-10-06 18:34:00,
2013-10-06 13:39:00,54.1,43.0,29.92,WNW,302,2.0,2.0,66,0.00,,,0.01,Wunderground v.1.15,2013-10-06 18:39:00,
2013-10-06 13:49:00,53.5,42.8,29.92,SSE,149,2.0,3.0,67,0.00,,,0.01,Wunderground v.1.15,2013-10-06 18:49:00,
2013-10-06 13:59:00,53.2,42.5,29.92,WSW,255,2.0,4.0,67,0.00,,,0.01,Wunderground v.1.15,2013-10-06 18:59:00,
2013-10-06 14:09:00,53.9,43.2,29.92,ESE,112,2.0,2.0,67,0.00,,,0.01,Wunderground v.1.15,2013-10-06 19:09:00,
2013-10-06 14:14:00,54.1,42.6,29.92,NW,326,1.0,2.0,65,0.00,,,0.01,Wunderground v.1.15,2013-10-06 19:14:00,
2013-10-06 14:19:00,54.2,42.7,29.93,West,277,2.0,2.0,65,0.00,,,0.01,Wunderground v.1.15,2013-10-06 19:19:00,
2013-10-06 14:29:00,54.0,42.5,29.92,WSW,249,2.0,2.0,65,0.00,,,0.01,Wunderground v.1.15,2013-10-06 19:29:00,
2013-10-06 14:39:00,54.5,43.4,29.92,ENE,71,1.0,2.0,66,0.00,,,0.01,Wunderground v.1.15,2013-10-06 19:39:00,
2013-10-06 14:49:00,55.6,42.8,29.92,ESE,120,3.0,3.0,62,0.00,,,0.01,Wunderground v.1.15,2013-10-06 19:49:00,
2013-10-06 14:54:00,55.7,42.5,29.92,East,97,3.0,6.0,61,0.00,,,0.01,Wunderground v.1.15,2013-10-06 19:54:00,
2013-10-06 15:00:00,56.1,42.4,29.91,West,280,3.0,3.0,60,0.00,,,0.01,Wunderground v.1.15,2013-10-06 20:00:00,
2013-10-06 15:09:00,56.8,41.7,29.91,SSE,152,3.0,3.0,57,0.00,,,0.01,Wunderground v.1.15,2013-10-06 20:09:00,
2013-10-06 15:14:00,56.9,42.7,29.91,East,101,3.0,3.0,59,0.00,,,0.01,Wunderground v.1.15,2013-10-06 20:14:00,
2013-10-06 15:24:00,55.8,42.5,29.91,SE,124,3.0,5.0,61,0.00,,,0.01,Wunderground v.1.15,2013-10-06 20:24:00,
2013-10-06 15:34:00,56.2,42.5,29.91,ESE,114,3.0,4.0,60,0.00,,,0.01,Wunderground v.1.15,2013-10-06 20:34:00,
2013-10-06 15:44:00,56.7,43.0,29.91,ESE,121,2.0,2.0,60,0.00,,,0.01,Wunderground v.1.15,2013-10-06 20:44:00,
2013-10-06 15:49:00,57.3,43.5,29.91,WNW,282,1.0,1.0,60,0.00,,,0.01,Wunderground v.1.15,2013-10-06 20:49:00,
2013-10-06 15:54:00,57.4,43.2,29.91,ESE,117,1.0,3.0,59,0.00,,,0.01,Wunderground v.1.15,2013-10-06 20:54:00,
2013-10-06 16:04:00,56.7,43.4,29.91,SW,232,2.0,3.0,61,0.00,,,0.01,Wunderground v.1.15,2013-10-06 21:04:00,
2013-10-06 16:14:00,57.6,42.9,29.91,WNW,285,3.0,3.0,58,0.00,,,0.01,Wunderground v.1.15,2013-10-06 21:14:00,
2013-10-06 16:24:00,57.8,44.4,29.91,ENE,62,2.0,3.0,61,0.00,,,0.01,Wunderground v.1.15,2013-10-06 21:24:00,
2013-10-06 16:29:00,57.9,42.8,29.90,WNW,288,2.0,2.0,57,0.00,,,0.01,Wunderground v.1.15,2013-10-06 21:29:00,
2013-10-06 16:39:00,58.0,43.7,29.90,SSE,159,1.0,6.0,59,0.00,,,0.01,Wunderground v.1.15,2013-10-06 21:39:00,
2013-10-06 16:49:00,58.0,44.2,29.90,SE,139,1.0,6.0,60,0.00,,,0.01,Wunderground v.1.15,2013-10-06 21:49:00,
2013-10-06 16:59:00,57.6,42.9,29.90,West,271,2.0,2.0,58,0.00,,,0.01,Wunderground v.1.15,2013-10-06 21:59:00,
2013-10-06 17:09:00,57.3,43.1,29.90,ESE,115,2.0,2.0,59,0.00,,,0.01,Wunderground v.1.15,2013-10-06 22:09:00,
2013-10-06 17:19:00,56.9,43.6,29.89,SSW,212,2.0,2.0,61,0.00,,,0.01,Wunderground v.1.15,2013-10-06 22:19:00,
2013-10-06 17:29:00,56.6,42.9,29.90,East,87,1.0,1.0,60,0.00,,,0.01,Wunderground v.1.15,2013-10-06 22:29:00,
2013-10-06 17:39:00,56.4,43.1,29.90,SSW,211,1.0,2.0,61,0.00,,,0.01,Wunderground v.1.15,2013-10-06 22:39:00,
2013-10-06 17:44:00,56.3,43.9,29.90,SE,129,1.0,2.0,63,0.00,,,0.01,Wunderground v.1.15,2013-10-06 22:44:00,
2013-10-06 17:54:00,55.9,43.1,29.91,SE,134,1.0,2.0,62,0.00,,,0.01,Wunderground v.1.15,2013-10-06 22:54:00,
2013-10-06 17:59:00,55.8,43.4,29.91,ESE,118,1.0,1.0,63,0.00,,,0.01,Wunderground v.1.15,2013-10-06 22:59:00,
2013-10-06 18:09:00,55.5,43.9,29.91,WSW,238,1.0,1.0,65,0.00,,,0.01,Wunderground v.1.15,2013-10-06 23:09:00,
2013-10-06 18:19:00,55.1,43.9,29.91,ESE,111,0.0,2.0,66,0.00,,,0.01,Wunderground v.1.15,2013-10-06 23:19:00,
2013-10-06 18:29:00,54.9,44.1,29.91,SSW,203,0.0,2.0,67,0.00,,,0.01,Wunderground v.1.15,2013-10-06 23:29:00,
2013-10-06 18:39:00,54.4,44.8,29.91,ESE,106,0.0,2.0,70,0.00,,,0.01,Wunderground v.1.15,2013-10-06 23:39:00,
2013-10-06 18:49:00,53.9,44.7,29.91,East,97,0.0,2.0,71,0.00,,,0.01,Wunderground v.1.15,2013-10-06 23:49:00,
2013-10-06 18:59:00,53.7,46.7,29.90,East,97,0.0,2.0,77,0.00,,,0.01,Wunderground v.1.15,2013-10-06 23:59:00,
2013-10-06 19:09:00,53.2,45.1,29.91,East,101,0.0,2.0,74,0.00,,,0.01,Wunderground v.1.15,2013-10-07 00:09:00,
2013-10-06 19:19:00,53.3,47.6,29.91,East,97,0.0,2.0,81,0.00,,,0.01,Wunderground v.1.15,2013-10-07 00:19:00,
2013-10-06 19:29:00,53.0,48.0,29.91,East,98,0.0,2.0,83,0.00,,,0.01,Wunderground v.1.15,2013-10-07 00:29:00,
2013-10-06 19:34:00,52.9,47.9,29.91,ESE,110,0.0,2.0,83,0.00,,,0.01,Wunderground v.1.15,2013-10-07 00:34:00,
2013-10-06 19:44:00,53.0,47.3,29.91,ESE,114,0.0,2.0,81,0.00,,,0.01,Wunderground v.1.15,2013-10-07 00:44:00,
2013-10-06 19:54:00,53.1,46.8,29.90,ESE,113,0.0,2.0,79,0.00,,,0.01,Wunderground v.1.15,2013-10-07 00:54:00,
2013-10-06 20:04:00,53.4,46.4,29.90,ESE,104,0.0,2.0,77,0.00,,,0.01,Wunderground v.1.15,2013-10-07 01:04:00,
2013-10-06 20:09:00,53.4,46.0,29.90,ESE,114,0.0,2.0,76,0.00,,,0.01,Wunderground v.1.15,2013-10-07 01:09:00,
2013-10-06 20:14:00,53.5,46.1,29.90,East,98,0.0,2.0,76,0.00,,,0.01,Wunderground v.1.15,2013-10-07 01:14:00,
2013-10-06 20:24:00,53.4,46.4,29.91,East,97,0.0,2.0,77,0.00,,,0.01,Wunderground v.1.15,2013-10-07 01:24:00,
2013-10-06 20:34:00,53.4,46.0,29.90,East,84,0.0,2.0,76,0.00,,,0.01,Wunderground v.1.15,2013-10-07 01:34:00,
2013-10-06 20:44:00,53.5,46.1,29.91,ESE,103,0.0,2.0,76,0.00,,,0.01,Wunderground v.1.15,2013-10-07 01:44:00,
2013-10-06 20:54:00,53.7,46.7,29.91,SE,146,0.0,2.0,77,0.00,,,0.01,Wunderground v.1.15,2013-10-07 01:54:00,
2013-10-06 21:04:00,54.3,46.5,29.91,ESE,122,0.0,2.0,75,0.00,,,0.01,Wunderground v.1.15,2013-10-07 02:04:00,
2013-10-06 21:14:00,54.7,46.6,29.92,SE,134,0.0,2.0,74,0.00,,,0.01,Wunderground v.1.15,2013-10-07 02:14:00,
2013-10-06 21:24:00,55.1,46.6,29.92,South,183,0.0,2.0,73,0.00,,,0.01,Wunderground v.1.15,2013-10-07 02:24:00,
2013-10-06 21:34:00,55.5,46.6,29.92,ESE,104,0.0,2.0,72,0.00,,,0.01,Wunderground v.1.15,2013-10-07 02:34:00,
2013-10-06 21:39:00,55.7,46.8,29.92,SSW,205,0.0,2.0,72,0.00,,,0.01,Wunderground v.1.15,2013-10-07 02:39:00,
2013-10-06 21:49:00,55.9,47.7,29.92,ESE,105,0.0,2.0,74,0.00,,,0.01,Wunderground v.1.15,2013-10-07 02:49:00,
2013-10-06 21:59:00,55.8,47.3,29.93,ESE,109,0.0,2.0,73,0.00,,,0.01,Wunderground v.1.15,2013-10-07 02:59:00,
2013-10-06 22:09:00,55.2,47.4,29.93,SW,218,0.0,2.0,75,0.00,,,0.01,Wunderground v.1.15,2013-10-07 03:09:00,
2013-10-06 22:14:00,55.1,47.3,29.93,ESE,113,0.0,2.0,75,0.00,,,0.01,Wunderground v.1.15,2013-10-07 03:14:00,
2013-10-06 22:24:00,55.2,47.4,29.94,East,96,0.0,2.0,75,0.00,,,0.01,Wunderground v.1.15,2013-10-07 03:24:00,
2013-10-06 22:29:00,55.1,47.7,29.94,SSE,158,0.0,2.0,76,0.00,,,0.01,Wunderground v.1.15,2013-10-07 03:29:00,
2013-10-06 22:39:00,55.0,47.9,29.94,SSW,198,0.0,2.0,77,0.00,,,0.01,Wunderground v.1.15,2013-10-07 03:39:00,
2013-10-06 22:49:00,55.2,46.7,29.94,SE,138,1.0,1.0,73,0.00,,,0.01,Wunderground v.1.15,2013-10-07 03:49:00,
2013-10-06 22:54:00,55.1,46.6,29.94,NNE,15,1.0,2.0,73,0.00,,,0.01,Wunderground v.1.15,2013-10-07 03:54:00,
2013-10-06 23:04:00,54.5,45.7,29.95,WSW,250,1.0,2.0,72,0.00,,,0.01,Wunderground v.1.15,2013-10-07 04:04:00,
2013-10-06 23:09:00,54.2,45.7,29.95,West,270,1.0,1.0,73,0.00,,,0.01,Wunderground v.1.15,2013-10-07 04:09:00,
2013-10-06 23:19:00,53.6,45.9,29.95,WSW,255,1.0,2.0,75,0.00,,,0.01,Wunderground v.1.15,2013-10-07 04:19:00,
2013-10-06 23:24:00,53.5,45.4,29.95,SSE,167,1.0,2.0,74,0.00,,,0.01,Wunderground v.1.15,2013-10-07 04:24:00,
2013-10-06 23:29:00,53.3,45.6,29.95,NNE,18,1.0,1.0,75,0.00,,,0.01,Wunderground v.1.15,2013-10-07 04:29:00,
2013-10-06 23:39:00,52.8,45.4,29.95,West,276,1.0,3.0,76,0.00,,,0.01,Wunderground v.1.15,2013-10-07 04:39:00,
2013-10-06 23:49:00,52.4,45.4,29.95,ESE,107,0.0,2.0,77,0.00,,,0.01,Wunderground v.1.15,2013-10-07 04:49:00,
2013-10-06 23:59:00,51.7,45.4,29.96,WSW,248,0.0,2.0,79,0.00,,,0.01,Wunderground v.1.15,2013-10-07 04:59:00,